{"data":{"norad_id":66109,"epoch":"2026-05-25T03:56:48.067008Z","epoch_age_seconds":61617,"freshness":"FRESH","line1":"1 66109U 25236Z   26145.16444522  .00025037  00000+0  85413-3 0  9996","line2":"2 66109  53.1592 108.6217 0001486  79.7463 280.3705 15.30217542 34652","mean_motion":15.30217542,"eccentricity":0.0001486,"inclination_deg":53.1592,"raan_deg":108.6217,"arg_perigee_deg":79.7463,"mean_anomaly_deg":280.3705,"bstar":0.00085413,"rev_number":3465,"period_min":94.104266908215,"perigee_km":474.14429233533,"apogee_km":476.18109300399,"semimajor_km":6853.2996926697,"source":"CELESTRAK","updated_at":"2026-05-25T13:38:21.058729Z"}}